Time,TemperatureF,DewpointF,PressureIn,WindDirection,WindDirectionDegrees,WindSpeedMPH,WindSpeedGustMPH,Humidity,HourlyPrecipIn,Conditions,Clouds,dailyrainin,SoftwareType,DateUTC
2015-04-27 00:03:00,44.2,37.1,29.89,NNE,25,0.0,0.0,76,0.00,,---,0.00,VWS V15.00,2015-04-27 04:03:00,
2015-04-27 00:08:00,43.9,37.2,29.90,NNE,25,0.0,0.0,77,0.00,,---,0.00,VWS V15.00,2015-04-27 04:08:00,
2015-04-27 00:13:00,43.7,37.3,29.90,NNE,25,0.0,0.0,78,0.00,,---,0.00,VWS V15.00,2015-04-27 04:13:00,
2015-04-27 00:18:00,43.4,37.3,29.90,NNE,25,0.0,0.0,79,0.00,,---,0.00,VWS V15.00,2015-04-27 04:18:00,
2015-04-27 00:23:00,42.9,37.5,29.90,NNE,25,0.0,0.0,81,0.00,,---,0.00,VWS V15.00,2015-04-27 04:23:00,
2015-04-27 00:28:00,42.5,37.7,29.90,NNE,25,0.0,0.0,83,0.00,,---,0.00,VWS V15.00,2015-04-27 04:28:00,
2015-04-27 00:33:00,42.0,37.8,29.91,NNE,25,0.0,0.0,85,0.00,,---,0.00,VWS V15.00,2015-04-27 04:33:00,
2015-04-27 00:38:00,41.7,37.5,29.91,NNE,25,0.0,0.0,85,0.00,,---,0.00,VWS V15.00,2015-04-27 04:38:00,
2015-04-27 00:43:00,41.6,37.7,29.90,NNE,25,0.0,0.0,86,0.00,,---,0.00,VWS V15.00,2015-04-27 04:43:00,
2015-04-27 00:48:00,41.3,37.4,29.91,NNE,25,0.0,0.0,86,0.00,,---,0.00,VWS V15.00,2015-04-27 04:48:00,
2015-04-27 00:53:00,41.3,37.4,29.91,NNE,25,0.0,0.0,86,0.00,,---,0.00,VWS V15.00,2015-04-27 04:53:00,
2015-04-27 00:58:00,41.2,37.6,29.91,NNE,25,0.0,0.0,87,0.00,,---,0.00,VWS V15.00,2015-04-27 04:58:00,
2015-04-27 01:03:00,41.1,37.5,29.91,NNE,25,0.0,0.0,87,0.00,,---,0.00,VWS V15.00,2015-04-27 05:03:00,
2015-04-27 01:08:00,40.9,37.3,29.91,NNE,25,0.0,0.0,87,0.00,,---,0.00,VWS V15.00,2015-04-27 05:08:00,
2015-04-27 01:13:00,40.5,36.9,29.91,NNE,25,0.0,0.0,87,0.00,,---,0.00,VWS V15.00,2015-04-27 05:13:00,
2015-04-27 01:18:00,40.2,36.9,29.91,NNE,25,0.0,0.0,88,0.00,,---,0.00,VWS V15.00,2015-04-27 05:18:00,
2015-04-27 01:23:00,40.1,37.1,29.91,NNE,25,0.0,0.0,89,0.00,,---,0.00,VWS V15.00,2015-04-27 05:23:00,
2015-04-27 01:28:00,39.9,36.9,29.91,NNE,25,0.0,0.0,89,0.00,,---,0.00,VWS V15.00,2015-04-27 05:28:00,
2015-04-27 01:33:00,39.7,36.7,29.91,NNE,25,0.0,0.0,89,0.00,,---,0.00,VWS V15.00,2015-04-27 05:33:00,
2015-04-27 01:38:00,39.6,36.9,29.91,NNE,25,0.0,0.0,90,0.00,,---,0.00,VWS V15.00,2015-04-27 05:38:00,
2015-04-27 01:43:00,39.9,37.2,29.91,NNE,25,0.0,0.0,90,0.00,,---,0.00,VWS V15.00,2015-04-27 05:43:00,
2015-04-27 01:48:00,40.2,37.2,29.91,NNE,25,0.0,0.0,89,0.00,,---,0.00,VWS V15.00,2015-04-27 05:48:00,
2015-04-27 01:53:00,40.0,37.0,29.91,NNE,25,0.0,0.0,89,0.00,,---,0.00,VWS V15.00,2015-04-27 05:53:00,
2015-04-27 01:58:00,39.7,36.7,29.91,NNE,25,0.0,0.0,89,0.00,,---,0.00,VWS V15.00,2015-04-27 05:58:00,
2015-04-27 02:03:00,39.6,36.9,29.90,NNE,25,0.0,0.0,90,0.00,,---,0.00,VWS V15.00,2015-04-27 06:03:00,
2015-04-27 02:08:00,40.0,37.3,29.90,NNE,25,0.0,0.0,90,0.00,,---,0.00,VWS V15.00,2015-04-27 06:08:00,
2015-04-27 02:13:00,40.2,37.2,29.90,NNE,25,0.0,0.0,89,0.00,,---,0.00,VWS V15.00,2015-04-27 06:13:00,
2015-04-27 02:18:00,40.1,37.1,29.90,NNE,25,0.0,0.0,89,0.00,,---,0.00,VWS V15.00,2015-04-27 06:18:00,
2015-04-27 02:23:00,39.8,36.8,29.90,NNE,25,0.0,0.0,89,0.00,,---,0.00,VWS V15.00,2015-04-27 06:23:00,